FW0647 Weather Reports


time (UTC)temp
C
wind
direction
speed
KPH
gust
KPH
rain 1hr
cm
rain 24hr
cm
rain mn
cm
humidity
%
barometer
mb
20260506191510 14 360 0.0 1.6 0.00 0.03 0.03 74 1019.8
20260506190010 14 360 0.0 3.2 0.00 0.03 0.03 74 1020.1
20260506184520 13 360 0.0 3.2 0.00 0.03 0.03 77 1020.3
20260506183008 13 360 0.0 1.6 0.00 0.03 0.03 77 1019.6
20260506181508 13 360 1.6 12.9 0.00 0.03 0.03 78 1018.8
20260506180007 13 360 0.0 11.3 0.00 0.03 0.03 79 1018.6
20260506174506 12 360 0.0 11.3 0.00 0.03 0.03 80 1019.1
20260506173005 12 360 1.6 8.0 0.00 0.03 0.03 81 1019.5
20260506171504 12 360 1.6 12.9 0.00 0.03 0.03 81 1019.3
20260506170008 12 360 1.6 9.7 0.00 0.03 0.03 82 1019.3
20260506164504 12 360 0.0 11.3 0.00 0.03 0.03 83 1019.4
20260506163005 12 118 0.0 9.7 0.00 0.03 0.03 83 1019.6
20260506161502 12 108 0.0 8.0 0.00 0.03 0.03 84 1019.6
20260506160001 12 360 0.0 6.4 0.00 0.03 0.03 85 1019.2
20260506154501 11 360 0.0 9.7 0.03 0.03 0.03 86 1018.5
20260506153059 11 360 0.0 14.5 0.03 0.03 0.03 86 1018.7
20260506151555 11 360 0.0 6.4 0.03 0.03 0.03 85 1019.5
20260506150100 11 360 0.0 9.7 0.03 0.03 0.03 83 1019.8
20260506144603 11 360 0.0 3.2 0.00 0.00 0.00 81 1021.0
20260506143054 11 360 0.0 14.5 0.00 0.00 0.00 81 1020.9
20260506141550 11 360 1.6 9.7 0.00 0.00 0.00 81 1018.7
20260506140104 11 360 0.0 8.0 0.00 0.00 0.00 81 1019.7
20260506134545 11 360 0.0 6.4 0.00 0.00 0.00 80 1019.3
20260506133047 11 360 1.6 19.3 0.00 0.00 0.00 80 1018.7
20260506131544 11 360 0.0 25.7 0.00 0.00 0.00 80 1018.5
20260506130050 11 360 1.6 12.9 0.00 0.00 0.00 79 1018.3
20260506124535 12 360 1.6 12.9 0.00 0.00 0.00 78 1017.9
20260506123038 12 360 0.0 8.0 0.00 0.00 0.00 76 1017.8
20260506121528 12 360 1.6 16.1 0.00 0.00 0.00 75 1017.7
20260506120032 12 360 1.6 8.0 0.00 0.00 0.00 74 1017.6
20260506114522 12 360 0.0 8.0 0.00 0.00 0.00 74 1017.5
20260506113019 13 360 0.0 11.3 0.00 0.00 0.00 74 1017.1
20260506111516 13 360 0.0 8.0 0.00 0.00 0.00 74 1016.9
20260506110015 13 360 0.0 11.3 0.00 0.00 0.00 74 1016.6
20260506104522 13 360 0.0 16.1 0.00 0.00 0.00 74 1016.3
20260506103008 13 360 1.6 9.7 0.00 0.00 0.00 75 1016.1
20260506101505 13 360 0.0 20.9 0.00 0.00 0.00 75 1015.5
20260506100011 13 360 0.0 8.0 0.00 0.00 0.00 75 1015.3
20260506094502 14 360 0.0 8.0 0.00 0.00 0.00 75 1014.9
20260506093059 14 132 0.0 6.4 0.00 0.00 0.00 75 1015.2
20260506091558 14 360 0.0 3.2 0.00 0.00 0.00 75 1014.8
20260506090056 14 360 0.0 6.4 0.00 0.00 0.00 75 1014.9
20260506084556 15 360 0.0 3.2 0.00 0.00 0.00 75 1014.8
20260506083056 15 360 0.0 8.0 0.00 0.00 0.00 75 1014.6
20260506081604 15 360 0.0 6.4 0.00 0.00 0.00 75 1014.6
20260506073046 15 119 0.0 3.2 0.00 0.00 0.00 76 1014.3
20260506071545 15 360 0.0 6.4 0.00 0.00 0.00 75 1014.4
20260506061545 16 115 0.0 8.0 0.00 0.00 0.00 77 1014.3
20260506044543 17 360 1.6 9.7 0.00 0.00 0.00 75 1014.1
20260506043026 17 360 0.0 12.9 0.00 0.00 0.00 74 1014.1
20260506041523 18 360 1.6 16.1 0.00 0.00 0.00 74 1014.4
20260506040020 18 360 0.0 9.7 0.00 0.00 0.00 73 1013.9
20260506034516 19 360 0.0 9.7 0.00 0.00 0.00 73 1013.5
20260506033020 19 360 0.0 11.3 0.00 0.00 0.00 72 1013.3
20260506031523 20 360 0.0 8.0 0.00 0.00 0.00 71 1013.0
20260506030011 20 360 0.0 6.4 0.00 0.00 0.00 71 1012.7
20260506024509 20 360 0.0 8.0 0.00 0.00 0.00 70 1012.4
20260506023004 20 360 0.0 9.7 0.00 0.00 0.00 69 1012.1
20260506021503 21 360 0.0 9.7 0.00 0.00 0.00 69 1011.8
20260506020100 21 360 0.0 16.1 0.00 0.00 0.00 68 1011.5
20260506014558 22 360 0.0 9.7 0.00 0.00 0.00 68 1010.9
20260506013108 22 360 0.0 8.0 0.00 0.00 0.00 67 1010.4
20260506011559 23 360 0.0 6.4 0.00 0.00 0.00 66 1010.2
20260506010117 23 360 0.0 6.4 0.00 0.00 0.00 66 1010.2
20260506004552 24 360 0.0 9.7 0.00 0.00 0.00 65 1009.8
20260506003052 25 360 0.0 6.4 0.00 0.00 0.00 63 1009.3
20260506001600 25 360 0.0 6.4 0.00 0.00 0.00 62 1009.3
20260506000054 25 360 1.6 14.5 0.00 0.00 0.00 61 1009.4
20260505234550 26 360 0.0 22.5 0.00 0.00 0.00 60 1009.1
20260505233100 27 360 1.6 9.7 0.00 0.00 0.00 59 1008.8
20260505231549 27 360 0.0 12.9 0.00 0.00 0.00 59 1008.7
20260505230054 29 360 0.0 9.7 0.00 0.00 0.00 57 1008.2
20260505224548 30 360 1.6 6.4 0.00 0.00 0.00 50 1008.1
20260505223047 31 360 0.0 6.4 0.00 0.00 0.00 48 1007.9
20260505221546 31 360 0.0 3.2 0.00 0.00 0.00 47 1007.7
20260505220045 33 360 1.6 8.0 0.00 0.00 0.00 44 1007.3
20260505214544 33 355 0.0 3.2 0.00 0.00 0.00 44 1007.6
20260505213041 33 360 0.0 1.6 0.00 0.00 0.00 44 1007.5
20260505211537 33 255 0.0 8.0 0.00 0.00 0.00 43 1007.7
20260505210035 33 360 0.0 6.4 0.00 0.00 0.00 48 1008.0
20260505204534 32 360 1.6 6.4 0.00 0.00 0.00 49 1008.2
20260505203037 32 360 0.0 9.7 0.00 0.00 0.00 50 1008.2
20260505201540 32 360 0.0 8.0 0.00 0.00 0.00 50 1008.5
20260505200032 31 360 1.6 12.9 0.00 0.00 0.00 52 1008.5
20260505194529 32 360 0.0 9.7 0.00 0.00 0.00 53 1008.6
20260505193026 32 360 0.0 8.0 0.00 0.00 0.00 55 1008.7